Weather History for Kahului, HI

Change the Weather History Date:

Wednesday, July 9, 2014

  Actual Average Record
Temperature  
Mean Temperature 79 °F 79 °F  
Max Temperature 87 °F 87 °F 94 °F (1951)
Min Temperature 70 °F 71 °F 63 °F (1964)
Degree Days  
Heating Degree Days 0 0  
Month to date heating degree days 0 0  
Since 1 June heating degree days 0 0  
Since 1 July heating degree days 0 0  
Cooling Degree Days 14 14  
Month to date cooling degree days 145 126  
Year to date cooling degree days 2060 1773  
Since 1 June cooling degree days 564 514  
Growing Degree Days 28 (Base 50)    
Moisture  
Dew Point 67 °F    
Average Humidity 63    
Maximum Humidity 79    
Minimum Humidity 46    
Precipitation  
Precipitation T in 0.01 in 0.21 in (2002)
Month to date precipitation 0.06 0.11  
Year to date precipitation 14.31 9.81  
Snow  
Snow 0.00 in - - ()
Month to date snowfall 0.0  
Since 1 June snowfall 0.0  
Since 1 July snowfall 0.0  
Snow Depth 0.00 in    
Sea Level Pressure  
Sea Level Pressure 30.02 in    
Wind  
Wind Speed 15 mph (NE)    
Max Wind Speed 31 mph    
Max Gust Speed 41 mph    
Visibility 10 miles    
Events      
T = Trace of Precipitation, MM = Missing Value Source: NWS Daily Summary

Daily Weather History Graph

Daily Weather History Graph

Search for Another Location

Airport:

Trip Planner

Search our weather history database for the weather conditions in past years. The results will help you decide how hot, cold, wet, or windy it might be!

Date:

Astronomy

Jul. 09, 2014 Rise Set
Actual Time 5:51 AM HST 7:10 PM HST
Civil Twilight 5:26 AM HST 7:35 PM HST
Nautical Twilight 4:57 AM HST 8:04 PM HST
Astronomical Twilight 4:27 AM HST 8:34 PM HST
Moon 4:41 PM HST (7/9) 3:09 AM HST (7/9)
Length of Visible Light 14h 08m
Length of Day
13h 19m
Waxing Gibbous, 91% of the Moon is Illuminated
Jul 9
Waxing Gibbous
Jul 12
Full
Jul 18
Last Quarter
Jul 26
New
Aug 3
First Quarter

Hourly Weather History & Observations

Time (HST) Temp. Heat Index Dew Point Humidity Pressure Visibility Wind Dir Wind Speed Gust Speed Precip Events Conditions
12:54 AM 73.9 °F - 66.9 °F 79% 30.03 in 10.0 mi NE 8.1 mph - N/A   Clear
1:54 AM 73.0 °F - 66.9 °F 81% 30.01 in 10.0 mi NNE 9.2 mph - N/A   Clear
2:54 AM 75.0 °F - 66.9 °F 76% 30.00 in 10.0 mi NE 12.7 mph - N/A   Partly Cloudy
3:54 AM 73.9 °F - 66.9 °F 79% 30.00 in 10.0 mi NE 9.2 mph - N/A   Clear
4:54 AM 73.9 °F - 64.9 °F 73% 29.99 in 10.0 mi NE 12.7 mph - N/A   Clear
5:54 AM 73.0 °F - 64.0 °F 73% 30.01 in 10.0 mi ENE 6.9 mph - N/A   Partly Cloudy
6:54 AM 73.0 °F - 64.9 °F 76% 30.03 in 10.0 mi Calm Calm - N/A   Partly Cloudy
7:54 AM 79.0 °F - 66.9 °F 66% 30.04 in 10.0 mi NE 15.0 mph - N/A   Smoke
8:54 AM 82.9 °F 85.0 °F 66.0 °F 56% 30.04 in 10.0 mi ENE 16.1 mph 24.2 mph N/A   Smoke
9:54 AM 82.0 °F 85.5 °F 69.1 °F 65% 30.05 in 10.0 mi ENE 20.7 mph 28.8 mph N/A   Scattered Clouds
10:54 AM 86.0 °F 88.8 °F 66.9 °F 53% 30.04 in 10.0 mi NE 25.3 mph 32.2 mph N/A   Scattered Clouds
11:54 AM 87.1 °F 88.9 °F 64.9 °F 48% 30.02 in 10.0 mi ENE 21.9 mph 33.4 mph N/A   Partly Cloudy
12:54 PM 86.0 °F 88.8 °F 66.9 °F 53% 30.01 in 10.0 mi NE 21.9 mph 34.5 mph N/A   Scattered Clouds
1:54 PM 86.0 °F 89.4 °F 68.0 °F 55% 30.00 in 10.0 mi ENE 21.9 mph 31.1 mph N/A   Scattered Clouds
2:54 PM 84.0 °F 88.4 °F 70.0 °F 63% 29.98 in 10.0 mi NE 25.3 mph 35.7 mph N/A   Scattered Clouds
3:54 PM 82.0 °F 84.9 °F 68.0 °F 62% 29.98 in 10.0 mi ENE 23.0 mph 35.7 mph 0.00 in   Scattered Clouds
4:54 PM 80.1 °F 82.9 °F 69.1 °F 69% 29.98 in 10.0 mi ENE 23.0 mph 31.1 mph N/A   Scattered Clouds
5:54 PM 79.0 °F - 66.0 °F 64% 30.00 in 10.0 mi ENE 20.7 mph 32.2 mph N/A   Scattered Clouds
6:54 PM 78.1 °F - 68.0 °F 71% 30.01 in 10.0 mi NE 18.4 mph 26.5 mph N/A   Scattered Clouds
7:54 PM 77.0 °F - 69.1 °F 76% 30.04 in 10.0 mi NE 17.3 mph 23.0 mph N/A   Scattered Clouds
8:54 PM 77.0 °F - 70.0 °F 79% 30.06 in 10.0 mi NE 17.3 mph - N/A   Scattered Clouds
9:54 PM 75.0 °F - 70.0 °F 84% 30.08 in 10.0 mi NE 16.1 mph - N/A   Scattered Clouds
10:54 PM 75.0 °F - 69.1 °F 82% 30.08 in 10.0 mi ENE 12.7 mph 19.6 mph N/A   Mostly Cloudy
11:54 PM 75.9 °F - 69.1 °F 79% 30.07 in 10.0 mi NE 12.7 mph - N/A   Scattered Clouds